Location: Unspecified
(0.0000°N, 0.0000°E)
Time: 05:31:04
(UTC+00:00)

FREGAT DEB - Visible Passes

Search period start: 17 February 2026 00:00
Search period end: 27 February 2026 00:00
Orbit: 748 x 4621 km, 51.5° (Epoch: 21 December)

Date Brightness Start Highest point End Pass type
(mag) Time Alt. Az. Time Alt. Az. Time Alt. Az.
17 Feb ? 02:53:51 11° S 03:03:01 41° ESE 03:20:09 10° NE visible
17 Feb ? 05:22:17 10° WSW 05:34:40 49° NW 05:57:22 10° NNE visible
18 Feb ? 02:47:09 22° S 02:53:38 42° ESE 03:10:38 10° NE visible
18 Feb ? 05:13:08 10° WSW 05:25:18 48° NW 05:47:38 10° NNE visible
19 Feb ? 02:40:12 33° SSE 02:44:15 43° ESE 03:01:06 10° NE visible
19 Feb ? 05:03:59 10° WSW 05:15:58 46° NW 05:37:54 10° NNE visible
20 Feb ? 02:33:04 41° SE 02:34:52 43° ESE 02:51:35 10° NE visible
20 Feb ? 04:56:21 16° WSW 05:06:38 45° NW 05:28:10 10° NNE visible
21 Feb ? 02:25:45 44° ESE 02:25:45 44° ESE 02:42:04 10° NE visible
21 Feb ? 04:49:01 23° WSW 04:57:17 44° NW 05:18:26 10° NNE visible
22 Feb ? 02:18:18 42° E 02:18:18 42° E 02:32:32 10° NE visible
22 Feb ? 04:41:32 29° W 04:47:58 42° NW 05:08:41 10° NNE visible
23 Feb ? 02:10:41 39° E 02:10:41 39° E 02:23:01 10° NE visible
23 Feb ? 04:33:55 34° W 04:38:40 41° NW 04:58:57 10° NNE visible
24 Feb ? 02:02:56 34° ENE 02:02:56 34° ENE 02:13:30 10° NE visible
24 Feb ? 04:26:10 37° WNW 04:29:21 40° NW 04:49:13 10° NNE visible
25 Feb ? 01:55:04 30° ENE 01:55:04 30° ENE 02:03:59 10° NE visible
25 Feb ? 04:18:17 38° WNW 04:20:03 38° NW 04:39:28 10° NNE visible
26 Feb ? 01:47:06 26° ENE 01:47:06 26° ENE 01:54:28 10° NE visible
26 Feb ? 04:10:18 37° NW 04:10:45 37° NW 04:29:43 10° NNE visible
